Weather in Podbelsk

Russia / Samara Oblast     53°36′12″N   51°47′55″E
temp.,
°C
wind,
m/s
gust,
m/s
humid.,
%
clouds,
%
prec.,
mm/h
press.,
hPa
HPBL,
m
2 august, mon
mon201:00+20ene1150100 0.0 101411
04:00+20se115194 0.0 101511
07:00+23s114571 0.0 1015113
10:00+30sw233172 0.0 10151138
13:00+34wsw34225 0.0 10132650
16:00+35w34185 0.0 10123320
19:00+33nw462525 0.0 1012280
22:00+26ne2235100 0.0 101317
3 august, tue
tue301:00+24e2237100 0.0 101216
04:00+23sse124591 0.0 101311
07:00+25ese253694 0.0 1012147
10:00+32sse222447 0.0 1011523
13:00+38s351618 0.0 10103787
16:00+38ssw441570 0.0 10093777
19:00+29sse0332100 0.1 101085
22:00+28w3437100 0.4 101048
4 august, wed
wed401:00+22n116099 0.0 101011
04:00+21ssw1167100 0.0 101111
07:00+24wnw125299 0.0 1011124
10:00+31sse1233100 0.0 1011646
13:00+35wsw4622100 0.0 10101635
16:00+37wnw591816 0.0 10082931
19:00+32nnw3429100 0.0 1009134
22:00+25nnw4753100 0.1 1011160
5 august, thu
thu501:00+22n4107214 0.0 1011240
04:00+19nw4890100 0.7 1012192
07:00+21nnw34830 0.0 1013300
10:00+25n4458100 0.0 10121067
13:00+29nnw444099 0.0 10121681
16:00+30n6434100 0.0 10112500
19:00+28nne673986 0.0 10111104
22:00+22n49540 0.0 1013237
6 august, fri
fri601:00+18n2365100 0.0 101343
04:00+17nnw227788 0.3 101326
07:00+19nne248023 2.4 1014161
10:00+26ne444285 2.7 10141414
13:00+24nw5546100 0.0 1014580
16:00+26nnw763627 0.0 10141671
19:00+24n474136 0.0 1014555
22:00+21n494422 0.0 1015288